Regional Weather Roundup
Issued by NWS

Home | Current Version | Previous Version | Graphics & Text | Print | Product List | Glossary On
Versions: 1 2 3 4 5 6 7 8 9 10 11 12 13 14 15 16 17 18 19 20 21 22 23 24 25 26 27
000
ASUS45 KCYS 060610
RWRWY

WYOMING REGIONAL WEATHER ROUNDUP
NATIONAL WEATHER SERVICE CHEYENNE WY
1200 AM MDT FRI MAY 06 2016

NOTE:  "FAIR" INDICATES FEW OR NO CLOUDS BELOW 12,000 FEET
WITH NO SIGNIFICANT WEATHER AND/OR OBSTRUCTIONS TO VISIBILITY.

WYZ001-060700-
YELLOWSTONE NATIONAL PARK

CITY           SKY/WX    TMP DP  RH WIND       PRES   REMARKS
LK YELLOWSTONE   N/A     36  28  73 NW5       30.14S WCI  32
6HR MIN TEMP:  36; 6HR MAX TEMP:  56;

W YELLOWSTONE  NOT AVBL

$$
WYZ002>013-054>058-071-098>099-060700-
NORTHERN WYOMING

CITY           SKY/WX    TMP DP  RH WIND       PRES   REMARKS
JACKSON        FAIR      55  34  44 N17       30.02S
CODY           FAIR      66  32  28 SW21G29   29.94F
GREYBULL       FAIR      66  30  26 E3        29.87F
6HR MIN TEMP:  66; 6HR MAX TEMP:  84;

WORLAND        FAIR      63  41  44 SE13      29.88F
6HR MIN TEMP:  60; 6HR MAX TEMP:  80;

SHERIDAN       FAIR      56  43  61 CALM      29.90F
6HR MIN TEMP:  53; 6HR MAX TEMP:  80;

BUFFALO        FAIR      63  33  32 W8        29.97F
6HR MIN TEMP:  61; 6HR MAX TEMP:  77;

GILLETTE       FAIR      54  42  64 S7        29.93S
6HR MIN TEMP:  50; 6HR MAX TEMP:  78;

HULETT         FAIR      55  43  62 S7        29.94S
NEWCASTLE      FAIR      64  30  27 E8        29.95S

$$
WYZ014>020-022>026-101>103-060700-
CENTRAL WYOMING

CITY           SKY/WX    TMP DP  RH WIND       PRES   REMARKS
BIG PINEY      FAIR      46  25  43 E8        30.04F
6HR MIN TEMP:  46; 6HR MAX TEMP:  72;

PINEDALE       MOCLDY    45  32  61 CALM      30.05F
DUBOIS         FAIR      52  32  46 W6        30.08F
LANDER         FAIR      59  31  34 SW7       29.95S
6HR MIN TEMP:  58; 6HR MAX TEMP:  74;

RIVERTON       FAIR      62  37  39 CALM      29.97S
6HR MIN TEMP:  60; 6HR MAX TEMP:  78;

CASPER         FAIR      49  42  77 W5        29.99S
6HR MIN TEMP:  48; 6HR MAX TEMP:  78;

DOUGLAS        FAIR      53  39  59 E7        29.99F
6HR MIN TEMP:  52; 6HR MAX TEMP:  80;


$$
WYZ021-027>030-104>119-060700-
SOUTHERN WYOMING

CITY           SKY/WX    TMP DP  RH WIND       PRES   REMARKS
EVANSTON       CLOUDY    55  35  47 SE9       30.03F
6HR MIN TEMP:  55; 6HR MAX TEMP:  68; 6HR PCP: TRACE;

KEMMERER         N/A     54  32  43 W3        30.05F
FORT BRIDGER   CLOUDY    57  36  44 SW15      30.06R
ROCK SPRINGS   FAIR      56  27  32 SE8       30.00F
6HR MIN TEMP:  56; 6HR MAX TEMP:  71;

DIXON          FAIR      51  32  49 NE6       30.04F
RAWLINS        FAIR      51  31  46 E9        30.06F
6HR MIN TEMP:  49; 6HR MAX TEMP:  74;

SARATOGA       FAIR      46  32  57 S9        30.08F
LARAMIE        FAIR      45  35  68 S5        30.11F
6HR MIN TEMP:  44; 6HR MAX TEMP:  69;

CHEYENNE       FAIR      59  36  42 S7        30.07F
6HR MIN TEMP:  55; 6HR MAX TEMP:  75;

TORRINGTON     FAIR      56  42  59 E7        29.96R
6HR MIN TEMP:  54; 6HR MAX TEMP:  80;

PINE BLUFFS    FAIR      52  41  66 SW9       30.04S

$$




USA.gov is the U.S. government's official web portal to all federal, state and local government web resources and services.